Regional Weather Roundup
Issued by NWS Sioux Falls, SD

Home | Current Version | Previous Version | Graphics & Text | Print | Product List | Glossary Off
Versions: 1 2 3 4 5 6 7 8 9 10 11 12 13 14 15 16 17 18 19 20 21 22 23 24 25 26 27 28 29 30 31 32 33 34 35 36 37 38 39 40 41 42 43 44 45 46 47 48 49 50

000
ASUS43 KFSD 170502
RWRFSD

WEATHER ROUNDUP FOR SE SOUTH DAKOTA/SW MINNESOTA/NW IOWA
NATIONAL WEATHER SERVICE SIOUX FALLS SD
1200 AM CDT TUE OCT 17 2017

NOTE: "FAIR" INDICATES FEW OR NO CLOUDS BELOW 12,000 FEET WITH NO
SIGNIFICANT WEATHER AND OR OBSTRUCTIONS TO VISIBILITY.


SDZ038>040-050-052>070-170600-
SOUTHEAST SOUTH DAKOTA

CITY           SKY/WX    TMP DP  RH WIND       PRES   REMARKS
BROOKINGS      CLEAR     48  39  71 SW5       30.00S
CHAMBERLAIN    NOT AVBL
HURON          CLEAR     46  40  79 W3        29.99F
MADISON        FAIR      54  39  58 W7        30.01S
MITCHELL       CLEAR     48  43  82 SW6       30.01S
SIOUX FALLS    CLEAR     47  40  76 CALM      30.01F
WINNER         FAIR      49  38  65 SW9       30.06S
YANKTON        CLEAR     52  41  66 N5        30.02S
$$

MNZ071-072-080-081-089-090-097-098-170600-
SOUTHWEST MINNESOTA

CITY           SKY/WX    TMP DP  RH WIND       PRES   REMARKS
FAIRMONT       CLEAR     54  40  59 SW12      30.01S
JACKSON        CLEAR     54  37  54 SW8       30.02S
MARSHALL       CLEAR     54  41  61 W8        29.97F
MONTEVIDEO     CLEAR     50  37  62 CALM      29.96R
PIPESTONE      CLEAR     48  37  66 SW5       30.01S
REDWOOD FALLS  CLEAR     52  38  58 SW6       29.97S
TRACY          CLEAR     54  42  62 SW9       29.99S
WORTHINGTON    CLEAR     54  39  57 SW10      30.02F
$$

IAZ001>003-012>014-020>022-031-032-NEZ013-014-SDZ071-170600-
NORTHWEST IOWA

CITY           SKY/WX    TMP DP  RH WIND       PRES   REMARKS
CHEROKEE       CLOUDY    51  41  68 S7        30.04S
DENISON        PTCLDY    55  41  58 S10       30.11S
ESTHERVILLE    CLEAR     54  40  59 SW9       30.01F
LE MARS        PTCLDY    54  41  62 SW3       30.03S
ORANGE CITY    PTCLDY    52  43  71 W5        30.04S
SHELDON        CLEAR     54  39  58 SW8       30.02S
SIOUX CITY     PTCLDY    58  40  51 S6        30.04F
SPENCER        CLEAR     55  39  54 SW8       30.03S
STORM LAKE     PTCLDY    57  39  51 SW14G21   30.05S
$$

ABBREVIATIONS USED IN REMARKS
   TC - TEMPERATURE IN CELSIUS
  WCI - WIND CHILL INDEX
   HX - HEAT INDEX
  VSB - VISIBILITY




USA.gov is the U.S. government's official web portal to all federal, state and local government web resources and services.